Messwerte Zeltweg

Temperatur

Temperatur
°C
1624233600 2.00 2.00 19
1624237200 3.00 3.00
1624240800 4.00 4.00
1624244400 5.00 5.00 17
1624248000 6.00 6.00 18
1624251600 7.00 7.00 18
1624255200 8.00 8.00 20
1624258800 9.00 9.00 22
1624262400 10.00 10.00 24
1624266000 11.00 11.00 27
1624269600 12.00 12.00 29
1624273200 13.00 13.00 30
1624276800 14.00 14.00 31
1624280400 15.00 15.00 31
1624284000 16.00 16.00 31
1624287600 17.00 17.00 31
1624291200 18.00 18.00 30
1624294800 19.00 19.00 28
1624298400 20.00 20.00 26
1624302000 21.00 21.00 24
1624305600 22.00 22.00 23
1624309200 23.00 23.00 23
1624312800 0.00 0.00
1624316400 1.00 1.00

Wir danken unserem Partner:

Aktuellste Messwerte

Wettercharakter
Wetter: klar
Temperatur
17 °C
Feuchtigkeit
80 %
Wind
5 km/h, -
Luftdruck
1011 hPa
Messzeit: 22. Juni 2021, 5.00Datenquelle: METAR

Weitere Messstationen in der Nähe

Messstation Temperatur Entfernung
Graz 19 °C 56 km
Klagenfurt 19 °C 69 km
Maribor 24 °C 107 km
Ljubljana 16 °C 111 km
Tarvisio - 118 km
Linz 18 °C 122 km
Salzburg 18 °C 147 km

Wind

Windrichtung Böen Mittelwind
° km/h km/h
1624233600 2.00 1.00 - 2.00 280° 5
1624237200 3.00 2.00 - 3.00
1624240800 4.00 3.00 - 4.00
1624244400 5.00 4.00 - 5.00 300° 5
1624248000 6.00 5.00 - 6.00 5
1624251600 7.00 6.00 - 7.00 0
1624255200 8.00 7.00 - 8.00 50° 5
1624258800 9.00 8.00 - 9.00 5
1624262400 10.00 9.00 - 10.00 5
1624266000 11.00 10.00 - 11.00 250° 5
1624269600 12.00 11.00 - 12.00 5
1624273200 13.00 12.00 - 13.00 320° 5
1624276800 14.00 13.00 - 14.00 190° 15
1624280400 15.00 14.00 - 15.00 190° 15
1624284000 16.00 15.00 - 16.00 200° 20
1624287600 17.00 16.00 - 17.00 190° 20
1624291200 18.00 17.00 - 18.00 200° 40 20
1624294800 19.00 18.00 - 19.00 70° 25
1624298400 20.00 19.00 - 20.00 80° 10
1624302000 21.00 20.00 - 21.00 70° 15
1624305600 22.00 21.00 - 22.00 80° 10
1624309200 23.00 22.00 - 23.00 120° 5
1624312800 0.00 23.00 - 0.00
1624316400 1.00 0.00 - 1.00

Ihre Wetterstation

Fehlt Ihre Wetterstation auf unserem Portal?

Schreiben Sie an network@meteonews.ch

Klima

Wann ist es am wärmsten? Wann regnet es am wenigsten? Unsere Klimadaten geben Auskunft.